Lid_Strength_Index
3 3 3 2 2 2 2 2 1 1 1 1 1 1 1 1 2 3 5 4 4 0 2 6 7 6 5 5 4 4 8 10 9 8 7 5 6 4 4 4 4 4 4 2 1
3 3 3 3 3 3 2 2 2 1 1 1 1 1 1 2 3 5 3 2 1 0 5 7 8 7 8 7 6 6 8 8 6 6 6 5 5 4 5 5 4 4 3 2 2
2 2 2 2 3 3 3 3 2 2 1 1 1 1 1 2 4 5 0 1 0 1 4 5 6 7 8 7 7 7 8 6 6 5 5 5 5 4 5 6 4 4 3 2 2
2 2 2 2 2 2 2 2 2 2 2 2 1 1 1 3 9 2 -1 0 -1 2 4 6 7 9 9 10 8 8 7 6 5 5 5 5 4 5 5 5 3 3 2 3 3
2 2 2 2 2 2 2 2 1 1 1 1 1 1 2 4 6 2 -1 0 1 2 5 6 8 7 9 8 8 9 8 6 5 5 5 4 5 5 5 3 3 3 3 3 3
3 2 2 2 2 2 2 2 2 2 2 1 1 0 2 6 3 3 3 3 3 4 5 5 6 6 8 7 7 6 7 8 7 7 5 6 6 5 5 3 3 3 3 3 3
2 2 2 2 2 2 2 2 2 2 1 1 0 1 3 5 3 2 3 3 3 4 6 5 5 6 7 8 6 6 8 6 6 7 7 6 8 7 5 4 4 4 3 3 3
2 2 2 2 3 2 2 2 2 1 0 0 -0 2 5 3 3 4 3 4 3 3 4 4 4 6 7 7 8 9 8 10 7 6 6 6 10 7 6 5 5 4 4 3 3
2 2 2 2 2 2 2 2 2 1 -0 0 1 2 5 3 4 4 3 5 4 4 4 4 5 7 7 9 10 10 13 11 10 6 6 6 8 6 4 5 5 5 4 4 3
2 3 3 3 3 2 2 2 1 1 1 0 1 5 4 6 4 4 3 4 5 5 5 5 6 8 8 9 13 11 11 10 11 8 7 7 7 6 5 5 5 5 5 4 4
3 3 3 3 3 3 3 1 3 4 2 5 6 6 6 4 3 5 4 5 5 6 9 7 9 10 9 8 8 9 10 10 9 7 8 8 7 6 5 5 5 5 4 4 4
3 3 3 3 3 3 3 4 5 4 8 5 5 5 5 4 7 5 4 7 7 9 8 9 10 8 7 8 9 9 10 11 9 8 8 9 9 7 6 5 5 5 5 4 4
4 3 3 3 3 4 3 4 2 3 8 6 6 6 5 5 7 6 5 6 8 9 9 10 9 7 8 9 10 10 11 11 11 9 8 9 10 8 6 5 5 4 4 4 4
3 3 3 3 5 3 4 2 2 2 10 9 8 6 5 5 7 5 4 6 8 9 9 9 8 9 9 10 9 11 8 9 10 10 13 9 14 9 8 7 6 5 5 4 4
4 3 4 5 3 3 3 2 2 3 17 8 8 4 5 7 6 6 4 6 9 9 9 10 9 9 9 9 7 10 8 8 9 10 11 11 12 11 8 9 7 6 5 4 3
4 4 4 3 3 3 2 2 3 11 17 10 7 8 7 6 6 6 6 5 5 8 7 7 5 6 7 7 7 6 8 8 9 10 14 12 12 12 10 8 7 5 5 4 4
4 4 5 3 4 2 2 4 10 14 8 10 9 8 8 8 8 8 8 8 9 11 10 8 8 6 6 9 8 8 10 17 15 15 15 10 12 10 8 7 6 6 5 4 3
5 5 4 3 2 2 4 8 14 10 10 8 9 8 9 8 8 8 8 9 7 7 10 11 12 8 7 8 10 9 10 16 21 17 15 10 14 11 7 6 5 5 4 4 4
5 2 3 2 2 2 7 12 11 10 9 10 9 9 9 8 8 8 8 8 7 7 10 11 11 7 6 6 7 9 11 9 16 14 15 12 10 8 6 6 6 5 5 4 4
4 3 3 1 1 4 9 11 9 8 9 9 11 8 10 9 9 8 9 7 8 6 6 8 12 8 7 6 7 9 7 13 12 18 19 14 13 12 9 9 6 6 5 5 4
3 5 2 1 2 6 10 10 9 8 9 10 10 9 9 9 8 9 9 7 6 7 6 7 10 11 8 9 10 9 10 10 14 14 17 17 14 8 9 9 9 7 5 4 4
4 8 1 2 7 6 9 9 9 9 8 8 7 7 9 8 9 9 9 8 5 6 9 7 10 14 11 7 7 8 10 11 16 15 13 14 14 7 9 8 8 9 6 4 4
5 5 1 2 9 9 8 8 8 9 9 9 9 7 6 8 10 8 8 6 5 7 9 9 11 15 13 9 10 11 10 9 10 11 15 17 14 8 8 9 7 8 7 5 4
5 7 5 4 4 7 9 9 9 7 9 8 8 6 8 9 7 9 8 6 6 6 5 7 11 13 16 13 11 14 11 9 10 14 13 12 12 9 10 9 8 8 7 5 4
4 7 6 8 8 8 7 8 10 10 8 8 8 7 8 11 9 10 8 7 6 6 7 8 14 11 10 9 9 10 10 9 10 10 12 11 11 9 9 9 9 8 6 5 5
7 8 7 8 6 7 8 8 10 9 9 9 9 7 7 9 9 10 8 8 9 7 8 8 13 11 13 10 9 10 9 9 9 9 9 9 10 7 6 6 6 6 6 6 5
5 5 8 9 7 8 8 8 9 9 8 7 8 8 8 7 6 5 5 6 6 8 10 11 12 13 16 11 10 13 10 10 9 8 10 12 9 7 7 6 6 6 5 5 5